Starlink 30759

operational
NORAD ID: 58122 Int'l Des: 2023-162 Owner: SPXS Country: US Constellation: starlink
LEOCIRCULAR

Starlink 30759について

説明を読み込み中...

リアルタイム位置

3D地球を読み込み中...

次回通過

高度履歴

Altitude vs Time

uPlot chart will show altitude changes over time

軌道要素

1 58122U 23162E 25354.27181279 .00000255 00000-0 33935-4 0 9997
2 58122 43.0023 204.6163 0001231 262.2466 97.8237 15.02533805120369
Epoch: Dec 20, 2025 • Age: 21 hours

現在のステータス

高度 563.0 km
速度 7.58 km/s
衛星直下点 -19.42°S, 40.88°E
打ち上げ日 Oct 22, 2023
運用期間 2.1 years
タイプ internet

技術仕様

分類 Payload
質量 730.00 kg
乾燥質量 700.00 kg
総質量 730.00 kg
長さ 0.30 m
直径 4.10 m
スパン 29.00 m
形状 Box + pan
製造者 SPXS
バスタイプ Starlink V2M
フェーズステータス In Orbit
所有者/国 SPXS/US

大規模コンステレーション

Loading constellations...